Regional Weather Roundup
Issued by NWS Mt. Holly, NJ

Home | Current Version | Previous Version | Text Only | Print | Product List | Glossary On
Versions: 1 2 3 4 5 6 7 8 9 10 11 12 13 14 15 16 17 18 19 20 21 22 23 24 25 26 27 28
000
ASUS41 KPHI 301112
RWRPHI

REGIONAL WEATHER ROUNDUP
NATIONAL WEATHER SERVICE MOUNT HOLLY NJ
700 AM EDT SAT JUL 30 2016

NOTE:  "FAIR" INDICATES FEW OR NO CLOUDS BELOW 12,000 FEET WITH NO
SIGNIFICANT WEATHER AND/OR OBSTRUCTIONS TO VISIBILITY.

 * = STATION DOES NOT REPORT PRECIPITATION (E.G. RAIN, SNOW, ETC.)
        OR FOG.

NJZ015>026-301200-
SOUTHERN NEW JERSEY

CITY           SKY/WX    TMP DP  RH WIND       PRES   REMARKS
POMONA         SUNNY     72  69  90 CALM      29.99R
WILDWOOD*        N/A    N/A N/A N/A MISG        N/A
MILLVILLE      MOSUNNY   72  70  93 CALM      29.98R FOG
WRIGHTSTOWN    CLOUDY    72  71  98 S3        29.96R FOG
MOUNT HOLLY    CLOUDY    72  71  97 CALM      29.98R FOG
TRENTON        CLOUDY    74  71  91 CALM      29.98R

$$
NJZ001>014-301200-
NORTHERN NEW JERSEY

CITY           SKY/WX    TMP DP  RH WIND       PRES   REMARKS
SUSSEX         CLOUDY    68  66  93 CALM      30.01R
ANDOVER*         N/A     68  66  93 VRB3      30.01R
MORRISTOWN     PTSUNNY   68  68 100 CALM      29.98R
NEWARK         CLOUDY    76  68  76 N5        29.97R
TETERBORO      CLOUDY    74  69  85 N6        29.97R
CALDWELL       CLOUDY    71  68  90 CALM      29.99R
SOMERVILLE     CLOUDY    70  68  93 CALM      29.97R FOG
ALLAIRE*       SUNNY     71  69  93 SW3       30.00R
TOMS RIVER*    CLOUDY    69  68  96 CALM      29.99R

$$
PAZ043-044-047-054-055-060>062-066>071-301200-
EASTERN PENNSYLVANIA

CITY           SKY/WX    TMP DP  RH WIND       PRES   REMARKS
PHILADELPHIA   PTSUNNY   76  73  91 S3        29.98R
NORTH PHILA    CLOUDY    76  73  91 CALM      29.99R
BLUE BELL*       N/A     70  70 100 CALM      29.98R
DOYLESTOWN     MOSUNNY   69  69 100 CALM      29.98S FOG
QUAKERTOWN*    SUNNY     72  72 100 CALM      30.00R
PERKASIE*      FOG       68  68 100 CALM      30.00R VSB 1/2
POTTSTOWN      SUNNY     72  70  93 CALM      30.00R
LANCASTER      CLOUDY    70  68  93 E5        29.98R
COATESVILLE    FOG       72  72 100 CALM      30.01R VSB<1/4
READING        CLEAR     71  68  90 CALM      29.97R
ALLENTOWN      CLOUDY    73  69  87 CALM      29.98R FOG
MOUNT POCONO   LGT RAIN  67  64  90 CALM      30.05R
HAZLETON       CLOUDY    68  66  94 CALM      30.05R
LEHIGHTON      PTSUNNY   70  70 100 CALM      29.99S FOG
WILKES BARRE   CLOUDY    69  62  78 E5        30.01R

$$
DEZALL-MDZ008-012-015-019-020-301200-
DELAWARE AND EASTERN MARYLAND

CITY           SKY/WX    TMP DP  RH WIND       PRES   REMARKS
WILMINGTON     CLEAR     75  71  87 E5        29.99R
DOVER          CLEAR     74  74 100 E5        29.97R
GEORGETOWN     CLEAR     73  72  96 CALM      29.98R FOG
EASTON         CLEAR     77  77 100 SE3       30.01R
OCEAN CITY     CLEAR     74  72  93 CALM      29.98R
WALLOPS ISLAND FAIR      77  75  93 SE3       29.98R
CAMBRIDGE      CLEAR     72  72 100 CALM      29.97R

$$
PAZ001-021-NYZ056-072-MDZ011-DCZ001-301200-
OTHER NEARBY LOCATIONS

CITY           SKY/WX    TMP DP  RH WIND       PRES   REMARKS
HARRISBURG     CLOUDY    74  70  87 CALM      29.97R
STATE COLLEGE  PTCLDY    64  63  94 CALM      30.00R
WILLIAMSPORT   PTCLDY    68  60  75 NW3       29.98R
BINGHAMTON     LGT RAIN  61  58  90 NE6       30.06R
NEW YORK CITY  CLOUDY    75  69  81 CALM      30.00R
BALTIMORE      CLOUDY    74  72  93 CALM      29.97R FOG
WASHINGTON DC  MOCLDY    79  74  84 S5        29.97R

$$




USA.gov is the U.S. government's official web portal to all federal, state and local government web resources and services.